North Myrtle Beach, SC

12:33 PM EST on December 05, 2019 (GMT -0500)
Grand Strand

Weather History for KCRE - October, 2019

Change the Weather History Date:

Tuesday, October 1, 2019

  Actual Average Record
Temperature  
Mean Temperature 78 °F 71 °F  
Max Temperature 87 °F 80 °F 88 °F (1998)
Min Temperature 71 °F 62 °F 46 °F (2001)
Degree Days  
Heating Degree Days 0 1  
Month to date heating degree days 1  
Since 1 July heating degree days 5  
Cooling Degree Days 14 6  
Month to date cooling degree days 6  
Year to date cooling degree days 1790  
Growing Degree Days 28 (Base 50)    
Moisture  
Dew Point 69 °F    
Average Humidity 78    
Maximum Humidity 94    
Minimum Humidity 51    
Precipitation  
Precipitation 0.00 in 0.15 in 0.74 in (2004)
Month to date precipitation 0.15  
Year to date precipitation 41.78  
Sea Level Pressure  
Sea Level Pressure 30.10 in    
Wind  
Wind Speed 6 mph (NE)    
Max Wind Speed 12 mph    
Max Gust Speed -    
Visibility 10 miles    
Events      
T = Trace of Precipitation, MM = Missing Value Source: NWS Daily Summary

Daily Weather History Graph

Daily Weather History Graph

Search for Another Location

Airport or City:

Astronomy

Oct. 01, 2019 Rise Set
Actual Time 7:09 AM EDT 6:59 PM EDT
Civil Twilight 6:44 AM EDT 7:24 PM EDT
Nautical Twilight 6:15 AM EDT 7:53 PM EDT
Astronomical Twilight 5:46 AM EDT 8:22 PM EDT
Moon 10:15 AM EDT (10/1) 9:20 PM EDT (10/1)
Length of Visible Light 12h 40m
Length of Day
11h 50m
Waxing Crescent, 12% of the Moon is Illuminated
Oct 1
Waxing Crescent
Oct 5
First Quarter
Oct 13
Full
Oct 21
Last Quarter
Oct 27
New

Hourly Weather History & Observations

Time (EDT) Temp. Heat Index Dew Point Humidity Pressure Visibility Wind Dir Wind Speed Gust Speed Precip Events Conditions
12:53 AM 75.9 °F - 72.0 °F 87% 30.12 in 10.0 mi NE 5.8 mph - N/A   Scattered Clouds
1:53 AM 75.9 °F - 71.1 °F 85% 30.11 in 10.0 mi NE 6.9 mph - N/A   Scattered Clouds
2:53 AM 75.0 °F - 71.1 °F 87% 30.09 in 10.0 mi NNE 4.6 mph - N/A   Scattered Clouds
3:53 AM 73.0 °F - 70.0 °F 90% 30.08 in 10.0 mi NNE 4.6 mph - N/A   Clear
4:53 AM 72.0 °F - 70.0 °F 93% 30.09 in 10.0 mi NNE 3.5 mph - N/A   Clear
5:53 AM 71.1 °F - 69.1 °F 93% 30.09 in 10.0 mi NNE 5.8 mph - N/A   Clear
6:44 AM 71.1 °F - 69.1 °F 93% 30.10 in 10.0 mi North 4.6 mph - N/A   Partly Cloudy
6:53 AM 71.1 °F - 69.1 °F 93% 30.11 in 10.0 mi North 5.8 mph - N/A   Clear
7:14 AM 71.1 °F - 69.1 °F 93% 30.11 in 10.0 mi NNE 8.1 mph - N/A   Partly Cloudy
7:50 AM 71.6 °F - 69.8 °F 94% 30.11 in 10.0 mi NNE 6.9 mph - N/A   Mostly Cloudy
7:53 AM 71.1 °F - 69.1 °F 93% 30.12 in 10.0 mi NNE 5.8 mph - N/A   Mostly Cloudy
8:53 AM 73.9 °F - 70.0 °F 87% 30.12 in 10.0 mi NNE 6.9 mph - N/A   Clear
9:53 AM 78.1 °F - 70.0 °F 76% 30.14 in 10.0 mi NNE 9.2 mph - N/A   Clear
10:53 AM 80.1 °F 82.9 °F 69.1 °F 69% 30.15 in 10.0 mi NNE 11.5 mph - N/A   Overcast
11:19 AM 80.1 °F 82.9 °F 69.1 °F 69% 30.14 in 10.0 mi NE 10.4 mph - N/A   Overcast
11:53 AM 82.0 °F 85.9 °F 70.0 °F 67% 30.15 in 10.0 mi NE 8.1 mph - N/A   Mostly Cloudy
12:53 PM 84.0 °F 86.3 °F 66.0 °F 55% 30.12 in 10.0 mi NNE 8.1 mph - N/A   Scattered Clouds
1:53 PM 86.0 °F 88.2 °F 66.0 °F 51% 30.10 in 10.0 mi NE 6.9 mph - N/A   Clear
2:53 PM 84.0 °F 88.4 °F 70.0 °F 63% 30.09 in 10.0 mi SE 6.9 mph - N/A   Clear
3:53 PM 82.9 °F 87.0 °F 70.0 °F 65% 30.06 in 10.0 mi SE 10.4 mph - N/A   Partly Cloudy
4:53 PM 82.0 °F 86.7 °F 72.0 °F 71% 30.06 in 10.0 mi ESE 9.2 mph - N/A   Clear
5:53 PM 81.0 °F 84.1 °F 69.1 °F 67% 30.06 in 10.0 mi ESE 5.8 mph - N/A   Clear
6:53 PM 80.1 °F 82.3 °F 66.9 °F 64% 30.06 in 10.0 mi SE 3.5 mph - N/A   Clear
7:53 PM 79.0 °F - 68.0 °F 69% 30.06 in 10.0 mi SE 3.5 mph - N/A   Clear
8:53 PM 79.0 °F - 69.1 °F 72% 30.06 in 10.0 mi SE 3.5 mph - N/A   Clear
9:53 PM 79.0 °F - 69.1 °F 72% 30.06 in 10.0 mi SE 3.5 mph - N/A   Clear
10:53 PM 79.0 °F - 66.9 °F 66% 30.06 in 10.0 mi SE 3.5 mph - N/A   Clear
11:53 PM 73.0 °F - 69.1 °F 87% 30.05 in 10.0 mi Calm Calm - N/A   Clear